| time (UTC) | temp F | wind direction | speed MPH | gust MPH | rain 1hr in | rain 24hr in | rain mn in | humidity % | barometer mb |
| 20260509215047 | 88 | 42 | 0.0 | 1.0 | 0.00 | 0.00 | 0.00 | 79 | 1008.1 |
| 20260509214513 | 88 | 70 | 0.0 | 2.0 | 0.00 | 0.00 | 0.00 | 80 | 1008.1 |
| 20260509214010 | 88 | 70 | 0.0 | 2.0 | 0.00 | 0.00 | 0.00 | 80 | 1008.1 |
| 20260509213507 | 89 | 67 | 0.0 | 4.0 | 0.00 | 0.00 | 0.00 | 77 | 1008.1 |
| 20260509213005 | 89 | 24 | 2.0 | 5.0 | 0.00 | 0.00 | 0.00 | 77 | 1008.1 |
| 20260509212501 | 90 | 56 | 0.0 | 5.0 | 0.00 | 0.00 | 0.00 | 76 | 1008.1 |
| 20260509211958 | 90 | 82 | 0.0 | 6.0 | 0.00 | 0.00 | 0.00 | 77 | 1008.1 |
| 20260509211455 | 91 | 71 | 5.0 | 6.0 | 0.00 | 0.00 | 0.00 | 75 | 1008.1 |
| 20260509210935 | 91 | 53 | 2.0 | 3.0 | 0.00 | 0.00 | 0.00 | 75 | 1008.1 |
| 20260509210432 | 90 | 109 | 0.0 | 0.0 | 0.00 | 0.00 | 0.00 | 75 | 1008.1 |
| 20260509205928 | 90 | 5 | 0.0 | 0.0 | 0.00 | 0.00 | 0.00 | 73 | 1008.1 |
| 20260509205424 | 90 | 23 | 0.0 | 0.0 | 0.00 | 0.00 | 0.00 | 76 | 1008.1 |
| 20260509204902 | 90 | 77 | 0.0 | 0.0 | 0.00 | 0.00 | 0.00 | 76 | 1008.1 |
| 20260509204359 | 90 | 40 | 0.0 | 0.0 | 0.00 | 0.00 | 0.00 | 76 | 1008.1 |
| 20260509203856 | 90 | 67 | 0.0 | 0.0 | 0.00 | 0.00 | 0.00 | 77 | 1008.1 |
| 20260509203353 | 90 | 73 | 0.0 | 4.0 | 0.00 | 0.00 | 0.00 | 78 | 1008.5 |
| 20260509202850 | 90 | 74 | 0.0 | 4.0 | 0.00 | 0.00 | 0.00 | 77 | 1008.5 |
| 20260509202315 | 90 | 339 | 0.0 | 4.0 | 0.00 | 0.00 | 0.00 | 77 | 1008.5 |
| 20260509201813 | 90 | 17 | 0.0 | 1.0 | 0.00 | 0.00 | 0.00 | 76 | 1008.5 |
| 20260509201238 | 90 | 71 | 0.0 | 1.0 | 0.00 | 0.00 | 0.00 | 78 | 1008.5 |
| 20260509200735 | 90 | 291 | 0.0 | 1.0 | 0.00 | 0.00 | 0.00 | 75 | 1008.8 |
| 20260509200213 | 90 | 327 | 0.0 | 1.0 | 0.00 | 0.00 | 0.00 | 74 | 1008.8 |
| 20260509195650 | 90 | 31 | 0.0 | 0.0 | 0.00 | 0.00 | 0.00 | 74 | 1008.8 |
| 20260509195116 | 90 | 22 | 0.0 | 0.0 | 0.00 | 0.00 | 0.00 | 72 | 1008.8 |
| 20260509194613 | 90 | 292 | 0.0 | 0.0 | 0.00 | 0.00 | 0.00 | 69 | 1008.8 |
| 20260509194110 | 90 | 292 | 0.0 | 0.0 | 0.00 | 0.00 | 0.00 | 71 | 1008.8 |
| 20260509193601 | 90 | 292 | 0.0 | 0.0 | 0.00 | 0.00 | 0.00 | 71 | 1008.8 |
| 20260509193058 | 90 | 333 | 0.0 | 0.0 | 0.00 | 0.00 | 0.00 | 70 | 1008.8 |
| 20260509192555 | 90 | 336 | 0.0 | 0.0 | 0.00 | 0.00 | 0.00 | 71 | 1008.8 |
| 20260509192052 | 90 | 70 | 0.0 | 0.0 | 0.00 | 0.00 | 0.00 | 71 | 1009.1 |
| 20260509191549 | 89 | 273 | 0.0 | 0.0 | 0.00 | 0.00 | 0.00 | 72 | 1009.1 |
| 20260509191046 | 89 | 273 | 0.0 | 0.0 | 0.00 | 0.00 | 0.00 | 71 | 1009.1 |
| 20260509190543 | 89 | 245 | 0.0 | 0.0 | 0.00 | 0.00 | 0.00 | 72 | 1009.1 |
| 20260509190040 | 89 | 261 | 0.0 | 0.0 | 0.00 | 0.00 | 0.00 | 72 | 1009.1 |
| 20260509185536 | 89 | 259 | 0.0 | 0.0 | 0.00 | 0.00 | 0.00 | 73 | 1009.1 |
| 20260509185033 | 88 | 237 | 0.0 | 0.0 | 0.00 | 0.00 | 0.00 | 74 | 1009.1 |
| 20260509184530 | 88 | 257 | 0.0 | 5.0 | 0.00 | 0.00 | 0.00 | 76 | 1009.1 |
| 20260509183955 | 87 | 306 | 0.0 | 5.0 | 0.00 | 0.00 | 0.00 | 74 | 1009.1 |
| 20260509183452 | 87 | 355 | 0.0 | 5.0 | 0.00 | 0.00 | 0.00 | 76 | 1009.5 |
| 20260509182918 | 87 | 242 | 0.0 | 5.0 | 0.00 | 0.00 | 0.00 | 78 | 1009.5 |
| 20260509182414 | 87 | 252 | 0.0 | 0.0 | 0.00 | 0.00 | 0.00 | 78 | 1009.8 |
| 20260509181911 | 86 | 279 | 0.0 | 0.0 | 0.00 | 0.00 | 0.00 | 79 | 1009.8 |
| 20260509181246 | 86 | 256 | 0.0 | 1.0 | 0.00 | 0.00 | 0.00 | 81 | 1009.8 |
| 20260509180743 | 85 | 288 | 0.0 | 1.0 | 0.00 | 0.00 | 0.00 | 83 | 1010.2 |
| 20260509180221 | 84 | 240 | 0.0 | 1.0 | 0.00 | 0.00 | 0.00 | 84 | 1010.2 |
| 20260509175718 | 84 | 249 | 1.0 | 1.0 | 0.00 | 0.00 | 0.00 | 85 | 1010.5 |
| 20260509175216 | 83 | 238 | 1.0 | 1.0 | 0.00 | 0.00 | 0.00 | 85 | 1010.5 |
| 20260509174713 | 82 | 266 | 0.0 | 0.0 | 0.00 | 0.00 | 0.00 | 88 | 1010.5 |
| 20260509174210 | 82 | 257 | 0.0 | 0.0 | 0.00 | 0.00 | 0.00 | 86 | 1010.5 |
| 20260509173707 | 83 | 257 | 0.0 | 1.0 | 0.00 | 0.00 | 0.00 | 86 | 1010.5 |
| 20260509173204 | 83 | 256 | 0.0 | 2.0 | 0.00 | 0.00 | 0.00 | 87 | 1010.8 |
| 20260509172701 | 83 | 251 | 0.0 | 2.0 | 0.00 | 0.00 | 0.00 | 87 | 1010.8 |
| 20260509172158 | 82 | 263 | 0.0 | 2.0 | 0.00 | 0.00 | 0.00 | 87 | 1010.8 |
| 20260509171655 | 82 | 252 | 1.0 | 2.0 | 0.00 | 0.00 | 0.00 | 88 | 1010.8 |
| 20260509171152 | 82 | 259 | 0.0 | 0.0 | 0.00 | 0.00 | 0.00 | 89 | 1010.8 |
| 20260509170649 | 82 | 260 | 0.0 | 0.0 | 0.00 | 0.00 | 0.00 | 89 | 1010.8 |
| 20260509170146 | 82 | 260 | 0.0 | 0.0 | 0.00 | 0.00 | 0.00 | 89 | 1010.8 |
| 20260509165548 | 82 | 260 | 0.0 | 0.0 | 0.00 | 0.00 | 0.00 | 90 | 1010.8 |
| 20260509165045 | 82 | 259 | 0.0 | 0.0 | 0.00 | 0.00 | 0.00 | 90 | 1010.8 |
| 20260509164542 | 82 | 260 | 0.0 | 0.0 | 0.00 | 0.00 | 0.00 | 90 | 1010.8 |
| 20260509164039 | 82 | 259 | 0.0 | 0.0 | 0.00 | 0.00 | 0.00 | 89 | 1010.8 |
| 20260509163536 | 82 | 259 | 0.0 | 0.0 | 0.00 | 0.00 | 0.00 | 88 | 1010.8 |
| 20260509163033 | 82 | 260 | 0.0 | 0.0 | 0.00 | 0.00 | 0.00 | 89 | 1010.8 |
| 20260509162530 | 81 | 259 | 0.0 | 0.0 | 0.00 | 0.00 | 0.00 | 89 | 1010.8 |
| 20260509161953 | 82 | 260 | 0.0 | 0.0 | 0.00 | 0.00 | 0.00 | 88 | 1010.8 |
| 20260509161417 | 81 | 259 | 0.0 | 0.0 | 0.00 | 0.00 | 0.00 | 90 | 1010.8 |
| 20260509160909 | 81 | 260 | 0.0 | 0.0 | 0.00 | 0.00 | 0.00 | 90 | 1010.5 |
| 20260509160404 | 81 | 260 | 0.0 | 0.0 | 0.00 | 0.00 | 0.00 | 92 | 1010.5 |
| 20260509155901 | 80 | 260 | 0.0 | 0.0 | 0.00 | 0.00 | 0.00 | 92 | 1010.8 |
| 20260509155358 | 80 | 259 | 0.0 | 0.0 | 0.00 | 0.00 | 0.00 | 93 | 1010.8 |
| 20260509154753 | 79 | 259 | 0.0 | 0.0 | 0.00 | 0.00 | 0.00 | 93 | 1010.5 |
| 20260509154218 | 79 | 255 | 0.0 | 0.0 | 0.00 | 0.00 | 0.00 | 93 | 1010.2 |
| 20260509153715 | 78 | 254 | 0.0 | 0.0 | 0.00 | 0.00 | 0.00 | 94 | 1010.2 |
| 20260509153211 | 78 | 254 | 0.0 | 0.0 | 0.00 | 0.00 | 0.00 | 94 | 1010.2 |
| 20260509152637 | 78 | 254 | 0.0 | 0.0 | 0.00 | 0.00 | 0.00 | 94 | 1010.5 |
| 20260509152134 | 78 | 254 | 0.0 | 0.0 | 0.00 | 0.00 | 0.00 | 94 | 1010.5 |
| 20260509151631 | 77 | 254 | 0.0 | 0.0 | 0.00 | 0.00 | 0.00 | 94 | 1010.5 |
| 20260509151127 | 77 | 254 | 0.0 | 0.0 | 0.00 | 0.00 | 0.00 | 94 | 1010.2 |
| 20260509150623 | 77 | 254 | 0.0 | 0.0 | 0.00 | 0.00 | 0.00 | 94 | 1010.2 |
| 20260509150120 | 77 | 254 | 0.0 | 0.0 | 0.00 | 0.00 | 0.00 | 94 | 1010.5 |
| 20260509145556 | 77 | 254 | 0.0 | 0.0 | 0.00 | 0.00 | 0.00 | 94 | 1010.5 |
| 20260509145053 | 77 | 254 | 0.0 | 0.0 | 0.00 | 0.00 | 0.00 | 94 | 1010.5 |
| 20260509144550 | 77 | 254 | 0.0 | 0.0 | 0.00 | 0.00 | 0.00 | 94 | 1010.5 |
| 20260509144016 | 77 | 254 | 0.0 | 0.0 | 0.00 | 0.00 | 0.00 | 94 | 1010.8 |
| 20260509143512 | 78 | 254 | 0.0 | 0.0 | 0.00 | 0.00 | 0.00 | 95 | 1010.8 |
| 20260509143010 | 78 | 254 | 0.0 | 0.0 | 0.00 | 0.00 | 0.00 | 95 | 1010.8 |
| 20260509142451 | 78 | 254 | 0.0 | 0.0 | 0.00 | 0.00 | 0.00 | 95 | 1010.8 |
| 20260509141916 | 77 | 254 | 0.0 | 0.0 | 0.00 | 0.00 | 0.00 | 95 | 1010.8 |
| 20260509141412 | 77 | 254 | 0.0 | 0.0 | 0.00 | 0.00 | 0.00 | 96 | 1010.8 |
| 20260509140909 | 77 | 254 | 0.0 | 0.0 | 0.00 | 0.00 | 0.00 | 96 | 1010.8 |
| 20260509140405 | 77 | 254 | 0.0 | 0.0 | 0.00 | 0.00 | 0.00 | 96 | 1010.8 |
| 20260509135830 | 77 | 247 | 0.0 | 0.0 | 0.00 | 0.00 | 0.00 | 96 | 1010.8 |
| 20260509135255 | 77 | 246 | 0.0 | 0.0 | 0.00 | 0.00 | 0.00 | 96 | 1010.5 |
| 20260509134751 | 76 | 252 | 0.0 | 0.0 | 0.00 | 0.00 | 0.00 | 96 | 1010.2 |
| 20260509134248 | 76 | 252 | 0.0 | 0.0 | 0.00 | 0.00 | 0.00 | 96 | 1010.2 |
| 20260509133744 | 76 | 252 | 0.0 | 1.0 | 0.00 | 0.00 | 0.00 | 96 | 1010.5 |
| 20260509133241 | 76 | 252 | 0.0 | 1.0 | 0.00 | 0.00 | 0.00 | 96 | 1010.8 |
| 20260509132738 | 76 | 256 | 0.0 | 1.0 | 0.00 | 0.00 | 0.00 | 96 | 1010.8 |
| 20260509132234 | 76 | 277 | 1.0 | 1.0 | 0.00 | 0.00 | 0.00 | 96 | 1010.8 |
| 20260509131731 | 76 | 257 | 0.0 | 0.0 | 0.00 | 0.00 | 0.00 | 96 | 1010.8 |
| 20260509131137 | 76 | 246 | 0.0 | 0.0 | 0.00 | 0.00 | 0.00 | 96 | 1010.8 |
| 20260509130547 | 76 | 247 | 0.0 | 0.0 | 0.00 | 0.00 | 0.00 | 96 | 1010.5 |
| 20260509130044 | 75 | 40 | 0.0 | 0.0 | 0.00 | 0.00 | 0.00 | 96 | 1010.5 |
| 20260509125510 | 75 | 40 | 0.0 | 0.0 | 0.00 | 0.00 | 0.00 | 96 | 1010.5 |
| 20260509124936 | 75 | 40 | 0.0 | 0.0 | 0.00 | 0.00 | 0.00 | 96 | 1010.5 |
| 20260509124432 | 75 | 40 | 0.0 | 0.0 | 0.00 | 0.00 | 0.00 | 96 | 1010.5 |
| 20260509123858 | 75 | 40 | 0.0 | 0.0 | 0.00 | 0.00 | 0.00 | 96 | 1010.8 |
| 20260509123354 | 74 | 40 | 0.0 | 0.0 | 0.00 | 0.00 | 0.00 | 96 | 1010.5 |
| 20260509122820 | 74 | 40 | 0.0 | 0.0 | 0.00 | 0.00 | 0.00 | 96 | 1010.5 |
| 20260509122315 | 74 | 40 | 0.0 | 0.0 | 0.00 | 0.00 | 0.00 | 96 | 1010.5 |
| 20260509121812 | 74 | 40 | 0.0 | 0.0 | 0.00 | 0.00 | 0.00 | 96 | 1010.5 |
| 20260509121309 | 74 | 40 | 0.0 | 0.0 | 0.00 | 0.00 | 0.00 | 95 | 1010.5 |
| 20260509120805 | 74 | 40 | 0.0 | 0.0 | 0.00 | 0.00 | 0.00 | 96 | 1010.5 |
| 20260509120159 | 74 | 40 | 0.0 | 0.0 | 0.00 | 0.00 | 0.00 | 96 | 1010.5 |
| 20260509115637 | 74 | 40 | 0.0 | 0.0 | 0.00 | 0.00 | 0.00 | 96 | 1010.5 |
| 20260509115134 | 74 | 40 | 0.0 | 0.0 | 0.00 | 0.00 | 0.00 | 96 | 1010.5 |
| 20260509114631 | 74 | 40 | 0.0 | 0.0 | 0.00 | 0.00 | 0.00 | 96 | 1010.5 |
| 20260509114128 | 74 | 40 | 0.0 | 0.0 | 0.00 | 0.00 | 0.00 | 96 | 1010.5 |
| 20260509113624 | 75 | 40 | 0.0 | 0.0 | 0.00 | 0.00 | 0.00 | 96 | 1010.5 |
| 20260509113121 | 74 | 40 | 0.0 | 0.0 | 0.00 | 0.00 | 0.00 | 96 | 1010.5 |
| 20260509112618 | 74 | 40 | 0.0 | 0.0 | 0.00 | 0.00 | 0.00 | 96 | 1010.5 |
| 20260509112004 | 75 | 40 | 0.0 | 0.0 | 0.00 | 0.00 | 0.00 | 96 | 1010.5 |
| 20260509111501 | 75 | 40 | 0.0 | 0.0 | 0.00 | 0.00 | 0.00 | 96 | 1010.5 |
| 20260509110957 | 75 | 40 | 0.0 | 0.0 | 0.00 | 0.00 | 0.00 | 96 | 1010.2 |
| 20260509110423 | 75 | 40 | 0.0 | 0.0 | 0.00 | 0.00 | 0.00 | 96 | 1010.2 |
| 20260509105919 | 75 | 40 | 0.0 | 0.0 | 0.00 | 0.00 | 0.00 | 96 | 1010.2 |
| 20260509105416 | 75 | 40 | 0.0 | 0.0 | 0.00 | 0.00 | 0.00 | 96 | 1009.8 |
| 20260509104914 | 75 | 40 | 0.0 | 0.0 | 0.00 | 0.00 | 0.00 | 96 | 1009.8 |
| 20260509104410 | 74 | 40 | 0.0 | 0.0 | 0.00 | 0.00 | 0.00 | 96 | 1009.8 |
| 20260509103907 | 74 | 40 | 0.0 | 0.0 | 0.00 | 0.00 | 0.00 | 96 | 1009.8 |
| 20260509103332 | 74 | 40 | 0.0 | 0.0 | 0.00 | 0.00 | 0.00 | 96 | 1009.8 |
| 20260509102828 | 74 | 40 | 0.0 | 0.0 | 0.00 | 0.00 | 0.00 | 96 | 1010.2 |
| 20260509102325 | 74 | 40 | 0.0 | 0.0 | 0.00 | 0.00 | 0.00 | 96 | 1010.2 |
| 20260509101822 | 74 | 40 | 0.0 | 0.0 | 0.00 | 0.00 | 0.00 | 96 | 1009.8 |
| 20260509101319 | 74 | 40 | 0.0 | 0.0 | 0.00 | 0.00 | 0.00 | 95 | 1009.8 |
| 20260509100816 | 74 | 40 | 0.0 | 0.0 | 0.00 | 0.00 | 0.00 | 95 | 1010.2 |
| 20260509100312 | 74 | 40 | 0.0 | 0.0 | 0.00 | 0.00 | 0.00 | 95 | 1010.2 |
| 20260509095809 | 74 | 40 | 0.0 | 0.0 | 0.00 | 0.00 | 0.00 | 95 | 1009.8 |
| 20260509095235 | 74 | 40 | 0.0 | 0.0 | 0.00 | 0.00 | 0.00 | 95 | 1009.8 |
| 20260509094732 | 74 | 40 | 0.0 | 0.0 | 0.00 | 0.00 | 0.00 | 95 | 1009.8 |
| 20260509094228 | 74 | 40 | 0.0 | 0.0 | 0.00 | 0.00 | 0.00 | 95 | 1009.8 |
| 20260509093654 | 74 | 40 | 0.0 | 0.0 | 0.00 | 0.00 | 0.00 | 95 | 1009.8 |
| 20260509093151 | 74 | 40 | 0.0 | 0.0 | 0.00 | 0.00 | 0.00 | 95 | 1009.8 |
| 20260509092648 | 74 | 40 | 0.0 | 0.0 | 0.00 | 0.00 | 0.00 | 95 | 1009.5 |
| 20260509092124 | 74 | 40 | 0.0 | 0.0 | 0.00 | 0.00 | 0.00 | 95 | 1009.5 |
| 20260509091620 | 74 | 40 | 0.0 | 0.0 | 0.00 | 0.00 | 0.00 | 96 | 1009.5 |
| 20260509091117 | 74 | 40 | 0.0 | 0.0 | 0.00 | 0.00 | 0.00 | 96 | 1009.5 |
| 20260509090512 | 74 | 40 | 0.0 | 0.0 | 0.00 | 0.00 | 0.00 | 96 | 1009.5 |
| 20260509085947 | 73 | 40 | 0.0 | 0.0 | 0.00 | 0.00 | 0.00 | 95 | 1009.5 |
| 20260509085443 | 73 | 40 | 0.0 | 0.0 | 0.00 | 0.00 | 0.00 | 95 | 1009.1 |
| 20260509084939 | 73 | 40 | 0.0 | 0.0 | 0.00 | 0.00 | 0.00 | 95 | 1009.5 |
| 20260509084437 | 73 | 40 | 0.0 | 0.0 | 0.00 | 0.00 | 0.00 | 95 | 1009.5 |
| 20260509083933 | 73 | 40 | 0.0 | 0.0 | 0.00 | 0.00 | 0.00 | 95 | 1009.5 |
| 20260509083430 | 73 | 40 | 0.0 | 0.0 | 0.00 | 0.00 | 0.00 | 95 | 1009.5 |
| 20260509082927 | 73 | 40 | 0.0 | 0.0 | 0.00 | 0.00 | 0.00 | 95 | 1009.5 |
| 20260509082321 | 73 | 40 | 0.0 | 0.0 | 0.00 | 0.00 | 0.00 | 95 | 1009.5 |
| 20260509081818 | 73 | 40 | 0.0 | 0.0 | 0.00 | 0.00 | 0.00 | 95 | 1009.8 |
| 20260509081315 | 73 | 40 | 0.0 | 0.0 | 0.00 | 0.00 | 0.00 | 95 | 1009.8 |
| 20260509080813 | 73 | 40 | 0.0 | 0.0 | 0.00 | 0.00 | 0.00 | 95 | 1009.8 |
| 20260509080207 | 73 | 40 | 0.0 | 0.0 | 0.00 | 0.00 | 0.00 | 95 | 1009.8 |
| 20260509075645 | 74 | 40 | 0.0 | 0.0 | 0.00 | 0.00 | 0.00 | 95 | 1009.8 |
| 20260509075141 | 74 | 40 | 0.0 | 0.0 | 0.00 | 0.00 | 0.00 | 95 | 1010.2 |
| 20260509074638 | 73 | 40 | 0.0 | 0.0 | 0.00 | 0.00 | 0.00 | 95 | 1010.2 |
| 20260509074135 | 73 | 40 | 0.0 | 0.0 | 0.00 | 0.00 | 0.00 | 95 | 1010.2 |
| 20260509073632 | 73 | 40 | 0.0 | 0.0 | 0.00 | 0.00 | 0.00 | 95 | 1010.2 |
| 20260509073129 | 74 | 40 | 0.0 | 0.0 | 0.00 | 0.00 | 0.00 | 95 | 1010.2 |
| 20260509072627 | 74 | 40 | 0.0 | 0.0 | 0.00 | 0.00 | 0.00 | 95 | 1010.2 |
| 20260509072123 | 74 | 40 | 0.0 | 0.0 | 0.00 | 0.00 | 0.00 | 95 | 1010.2 |
| 20260509071621 | 74 | 40 | 0.0 | 0.0 | 0.00 | 0.00 | 0.00 | 95 | 1010.2 |
| 20260509071028 | 74 | 40 | 0.0 | 0.0 | 0.00 | 0.00 | 0.00 | 95 | 1010.2 |
| 20260509070525 | 74 | 40 | 0.0 | 0.0 | 0.00 | 0.00 | 0.00 | 95 | 1010.2 |
| 20260509070003 | 74 | 40 | 0.0 | 0.0 | 0.00 | 0.00 | 0.00 | 95 | 1010.2 |
| 20260509065429 | 74 | 40 | 0.0 | 0.0 | 0.00 | 0.00 | 0.00 | 95 | 1010.2 |
| 20260509064926 | 74 | 40 | 0.0 | 0.0 | 0.00 | 0.00 | 0.00 | 95 | 1010.2 |
| 20260509064423 | 74 | 40 | 0.0 | 0.0 | 0.00 | 0.00 | 0.00 | 95 | 1009.8 |
| 20260509063849 | 74 | 40 | 0.0 | 0.0 | 0.00 | 0.00 | 0.00 | 95 | 1010.2 |
| 20260509063346 | 74 | 40 | 0.0 | 0.0 | 0.00 | 0.00 | 0.00 | 95 | 1010.2 |
| 20260509062843 | 74 | 40 | 0.0 | 0.0 | 0.00 | 0.00 | 0.00 | 95 | 1010.2 |
| 20260509062338 | 74 | 40 | 0.0 | 0.0 | 0.00 | 0.00 | 0.00 | 95 | 1010.5 |
| 20260509061835 | 74 | 40 | 0.0 | 0.0 | 0.00 | 0.00 | 0.00 | 95 | 1010.2 |
| 20260509061332 | 74 | 40 | 0.0 | 0.0 | 0.00 | 0.00 | 0.00 | 95 | 1010.2 |
| 20260509060829 | 74 | 40 | 0.0 | 0.0 | 0.00 | 0.00 | 0.00 | 95 | 1010.2 |
| 20260509060326 | 74 | 40 | 0.0 | 0.0 | 0.00 | 0.00 | 0.00 | 95 | 1010.2 |
| 20260509055823 | 74 | 40 | 0.0 | 0.0 | 0.00 | 0.00 | 0.00 | 95 | 1010.2 |
| 20260509055320 | 74 | 40 | 0.0 | 0.0 | 0.00 | 0.00 | 0.00 | 95 | 1010.2 |
| 20260509054817 | 75 | 40 | 0.0 | 0.0 | 0.00 | 0.00 | 0.00 | 95 | 1010.2 |
| 20260509054314 | 75 | 40 | 0.0 | 0.0 | 0.00 | 0.00 | 0.00 | 95 | 1010.2 |
| 20260509053740 | 75 | 40 | 0.0 | 0.0 | 0.00 | 0.00 | 0.00 | 95 | 1010.5 |
| 20260509053205 | 75 | 40 | 0.0 | 0.0 | 0.00 | 0.00 | 0.00 | 95 | 1010.5 |
| 20260509052702 | 75 | 40 | 0.0 | 0.0 | 0.00 | 0.00 | 0.00 | 95 | 1010.5 |
| 20260509052159 | 75 | 40 | 0.0 | 0.0 | 0.00 | 0.00 | 0.00 | 95 | 1010.5 |
| 20260509051656 | 75 | 40 | 0.0 | 0.0 | 0.00 | 0.00 | 0.00 | 94 | 1010.5 |
| 20260509051134 | 75 | 40 | 0.0 | 0.0 | 0.00 | 0.00 | 0.00 | 94 | 1010.5 |
| 20260509050632 | 75 | 40 | 0.0 | 0.0 | 0.00 | 0.00 | 0.00 | 94 | 1010.5 |
| 20260509050027 | 75 | 40 | 0.0 | 0.0 | 0.00 | 0.00 | 0.00 | 94 | 1010.8 |
| 20260509045350 | 75 | 40 | 0.0 | 0.0 | 0.00 | 0.00 | 0.00 | 94 | 1010.8 |
| 20260509044846 | 75 | 40 | 0.0 | 0.0 | 0.00 | 0.00 | 0.00 | 94 | 1010.8 |
| 20260509044344 | 75 | 40 | 0.0 | 0.0 | 0.00 | 0.00 | 0.00 | 94 | 1010.8 |
| 20260509043841 | 75 | 40 | 0.0 | 0.0 | 0.00 | 0.00 | 0.00 | 94 | 1010.8 |
| 20260509043338 | 75 | 40 | 0.0 | 0.0 | 0.00 | 0.00 | 0.00 | 94 | 1010.8 |
| 20260509042835 | 75 | 40 | 0.0 | 0.0 | 0.00 | 0.00 | 0.00 | 94 | 1010.8 |
| 20260509042332 | 75 | 40 | 0.0 | 0.0 | 0.00 | 0.00 | 0.00 | 94 | 1010.8 |
| 20260509041830 | 75 | 40 | 0.0 | 0.0 | 0.00 | 0.00 | 0.00 | 94 | 1010.5 |
| 20260509041327 | 75 | 40 | 0.0 | 0.0 | 0.00 | 0.00 | 0.00 | 94 | 1010.8 |
| 20260509040823 | 75 | 40 | 0.0 | 0.0 | 0.00 | 0.00 | 0.00 | 94 | 1010.8 |
| 20260509040320 | 75 | 40 | 0.0 | 0.0 | 0.00 | 0.00 | 0.00 | 94 | 1010.8 |
| 20260509035818 | 75 | 40 | 0.0 | 0.0 | 0.00 | 0.00 | 0.00 | 94 | 1010.5 |
| 20260509035315 | 75 | 40 | 0.0 | 0.0 | 0.00 | 0.00 | 0.00 | 94 | 1010.2 |
| 20260509034811 | 75 | 40 | 0.0 | 0.0 | 0.00 | 0.00 | 0.00 | 94 | 1010.5 |
| 20260509034308 | 75 | 40 | 0.0 | 0.0 | 0.00 | 0.00 | 0.00 | 94 | 1010.2 |
| 20260509033734 | 75 | 40 | 0.0 | 0.0 | 0.00 | 0.00 | 0.00 | 94 | 1010.2 |
| 20260509033231 | 75 | 40 | 0.0 | 0.0 | 0.00 | 0.00 | 0.00 | 94 | 1010.2 |
| 20260509032728 | 75 | 40 | 0.0 | 0.0 | 0.00 | 0.00 | 0.00 | 94 | 1010.2 |
| 20260509032225 | 75 | 40 | 0.0 | 0.0 | 0.00 | 0.00 | 0.00 | 94 | 1010.2 |
| 20260509031722 | 75 | 38 | 0.0 | 0.0 | 0.00 | 0.00 | 0.00 | 94 | 1010.2 |
| 20260509031219 | 75 | 36 | 0.0 | 0.0 | 0.00 | 0.00 | 0.00 | 94 | 1010.2 |
| 20260509030716 | 75 | 28 | 0.0 | 1.0 | 0.00 | 0.00 | 0.00 | 94 | 1010.2 |
| 20260509030213 | 75 | 28 | 0.0 | 4.0 | 0.00 | 0.00 | 0.00 | 94 | 1010.2 |
| 20260509025710 | 75 | 28 | 0.0 | 4.0 | 0.00 | 0.00 | 0.00 | 94 | 1010.2 |
| 20260509025207 | 75 | 28 | 0.0 | 4.0 | 0.00 | 0.00 | 0.00 | 94 | 1010.2 |
| 20260509024704 | 75 | 36 | 1.0 | 4.0 | 0.00 | 0.00 | 0.00 | 94 | 1009.8 |
| 20260509024201 | 75 | 95 | 1.0 | 1.0 | 0.00 | 0.00 | 0.00 | 94 | 1009.8 |
| 20260509023658 | 75 | 45 | 0.0 | 0.0 | 0.00 | 0.00 | 0.00 | 94 | 1009.8 |
| 20260509023155 | 75 | 355 | 0.0 | 2.0 | 0.00 | 0.00 | 0.00 | 94 | 1009.8 |
| 20260509022652 | 75 | 69 | 0.0 | 3.0 | 0.00 | 0.00 | 0.00 | 94 | 1010.2 |
| 20260509022117 | 75 | 69 | 0.0 | 3.0 | 0.00 | 0.00 | 0.00 | 94 | 1010.2 |
| 20260509021543 | 75 | 34 | 1.0 | 3.0 | 0.00 | 0.00 | 0.00 | 94 | 1009.8 |
| 20260509021039 | 75 | 23 | 1.0 | 4.0 | 0.00 | 0.00 | 0.00 | 94 | 1009.5 |
| 20260509020536 | 75 | 121 | 1.0 | 7.0 | 0.00 | 0.00 | 0.00 | 94 | 1009.5 |
| 20260509020032 | 75 | 53 | 1.0 | 7.0 | 0.00 | 0.00 | 0.00 | 94 | 1009.5 |
| 20260509015530 | 75 | 51 | 1.0 | 7.0 | 0.00 | 0.00 | 0.00 | 94 | 1009.5 |
| 20260509015027 | 75 | 34 | 1.0 | 7.0 | 0.00 | 0.00 | 0.00 | 94 | 1009.5 |
| 20260509014524 | 75 | 38 | 2.0 | 4.0 | 0.00 | 0.00 | 0.00 | 94 | 1009.1 |
| 20260509014021 | 75 | 58 | 2.0 | 4.0 | 0.00 | 0.00 | 0.00 | 94 | 1009.1 |
| 20260509013519 | 75 | 69 | 1.0 | 3.0 | 0.00 | 0.00 | 0.00 | 93 | 1009.5 |
| 20260509012945 | 75 | 41 | 2.0 | 3.0 | 0.00 | 0.00 | 0.00 | 93 | 1009.5 |
| 20260509012404 | 75 | 24 | 1.0 | 4.0 | 0.00 | 0.00 | 0.00 | 93 | 1009.5 |
| 20260509011901 | 75 | 24 | 1.0 | 5.0 | 0.00 | 0.00 | 0.00 | 93 | 1009.5 |
| 20260509011358 | 75 | 59 | 1.0 | 5.0 | 0.00 | 0.00 | 0.00 | 93 | 1009.8 |
| 20260509010856 | 75 | 59 | 0.0 | 5.0 | 0.00 | 0.00 | 0.00 | 93 | 1009.8 |
| 20260509010353 | 75 | 61 | 1.0 | 2.0 | 0.00 | 0.00 | 0.00 | 93 | 1009.5 |
| 20260509005850 | 75 | 79 | 1.0 | 2.0 | 0.00 | 0.00 | 0.00 | 93 | 1009.5 |
| 20260509005347 | 75 | 12 | 1.0 | 2.0 | 0.00 | 0.00 | 0.00 | 93 | 1009.5 |
| 20260509004845 | 75 | 19 | 1.0 | 3.0 | 0.00 | 0.00 | 0.00 | 93 | 1009.5 |
| 20260509004311 | 75 | 53 | 1.0 | 3.0 | 0.00 | 0.00 | 0.00 | 93 | 1009.8 |
| 20260509003737 | 75 | 61 | 1.0 | 10.0 | 0.00 | 0.00 | 0.00 | 93 | 1009.8 |
| 20260509003202 | 75 | 59 | 2.0 | 10.0 | 0.00 | 0.00 | 0.00 | 93 | 1009.8 |
| 20260509002659 | 75 | 25 | 1.0 | 10.0 | 0.00 | 0.00 | 0.00 | 93 | 1009.8 |
| 20260509002156 | 75 | 44 | 2.0 | 10.0 | 0.00 | 0.00 | 0.00 | 93 | 1009.1 |
| 20260509001653 | 75 | 59 | 1.0 | 6.0 | 0.00 | 0.00 | 0.00 | 93 | 1008.8 |
| 20260509001150 | 75 | 63 | 2.0 | 5.0 | 0.00 | 0.00 | 0.00 | 93 | 1008.8 |
| 20260509000616 | 75 | 45 | 1.0 | 6.0 | 0.00 | 0.00 | 0.00 | 92 | 1009.1 |
| 20260509000113 | 75 | 64 | 2.0 | 6.0 | 0.00 | 0.00 | 0.00 | 92 | 1009.5 |
| 20260508235549 | 75 | 34 | 1.0 | 4.0 | 0.00 | 0.00 | 0.00 | 92 | 1009.5 |
| 20260508235047 | 75 | 43 | 2.0 | 5.0 | 0.00 | 0.00 | 0.00 | 92 | 1009.8 |
| 20260508234512 | 75 | 38 | 0.0 | 5.0 | 0.00 | 0.00 | 0.00 | 92 | 1010.2 |
| 20260508233938 | 75 | 64 | 2.0 | 3.0 | 0.00 | 0.00 | 0.00 | 92 | 1010.2 |
| 20260508233435 | 75 | 12 | 1.0 | 3.0 | 0.00 | 0.00 | 0.00 | 92 | 1009.8 |
| 20260508232932 | 75 | 71 | 1.0 | 4.0 | 0.00 | 0.00 | 0.00 | 92 | 1009.5 |
| 20260508232429 | 75 | 63 | 2.0 | 4.0 | 0.00 | 0.00 | 0.00 | 92 | 1009.5 |
| 20260508231926 | 75 | 41 | 2.0 | 4.0 | 0.00 | 0.00 | 0.00 | 91 | 1009.5 |
| 20260508231423 | 75 | 45 | 2.0 | 8.0 | 0.00 | 0.00 | 0.00 | 91 | 1009.8 |
| 20260508230920 | 76 | 36 | 2.0 | 8.0 | 0.00 | 0.00 | 0.00 | 91 | 1009.8 |
| 20260508230417 | 76 | 37 | 2.0 | 8.0 | 0.00 | 0.00 | 0.00 | 91 | 1009.8 |
| 20260508225914 | 76 | 60 | 2.0 | 8.0 | 0.00 | 0.00 | 0.00 | 91 | 1009.5 |
| 20260508225411 | 76 | 48 | 2.0 | 6.0 | 0.00 | 0.00 | 0.00 | 91 | 1009.5 |
| 20260508224908 | 76 | 24 | 2.0 | 6.0 | 0.00 | 0.00 | 0.00 | 91 | 1009.5 |
| 20260508224405 | 76 | 35 | 2.0 | 6.0 | 0.00 | 0.00 | 0.00 | 91 | 1009.5 |
| 20260508223902 | 76 | 41 | 1.0 | 5.0 | 0.00 | 0.00 | 0.00 | 91 | 1009.5 |
| 20260508223359 | 76 | 39 | 2.0 | 5.0 | 0.00 | 0.00 | 0.00 | 91 | 1009.5 |
| 20260508222824 | 76 | 52 | 2.0 | 5.0 | 0.00 | 0.00 | 0.00 | 91 | 1009.5 |
| 20260508222320 | 76 | 26 | 2.0 | 6.0 | 0.00 | 0.00 | 0.00 | 91 | 1009.8 |
| 20260508221817 | 76 | 39 | 1.0 | 6.0 | 0.00 | 0.00 | 0.00 | 91 | 1009.8 |
| 20260508221314 | 75 | 52 | 2.0 | 6.0 | 0.00 | 0.00 | 0.00 | 91 | 1009.8 |
| 20260508220812 | 75 | 38 | 2.0 | 6.0 | 0.00 | 0.00 | 0.00 | 91 | 1009.8 |
| 20260508220308 | 75 | 24 | 1.0 | 4.0 | 0.00 | 0.00 | 0.00 | 91 | 1009.8 |
| 20260508215806 | 75 | 50 | 2.0 | 4.0 | 0.00 | 0.00 | 0.00 | 91 | 1009.8 |
| 20260508215306 | 75 | 46 | 1.0 | 4.0 | 0.00 | 0.00 | 0.00 | 91 | 1009.8 |